Simultaneous Nadir Overpasses (SNOs) Predictions

Prediction of SNOs between FY3D and AQUA Satellite Orbit:

Table of predicted SNOs for the next 14.0 days since TLE Epoch: 2/10/2024
Index Date (FY3D) Time (FY3D) Lat,Lon (FY3D) SZA (FY3D ) Date (AQUA) Time (AQUA) Lat,Lon (AQUA) SZA (AQUA ) Distance(km) Time Diff (sec)
1 02/11/2024 23:00:49 -79.22, -4.61 86.07 02/11/2024 23:01:02 -79.22, -4.55 86.08 1.34 13
2 02/11/2024 23:51:23 78.83, 165.59 93.36 02/11/2024 23:50:16 78.84, 165.47 93.40 2.78 67
3 02/14/2024 11:55:24 -79.19, 162.06 86.97 02/14/2024 11:55:21 -79.19, 162.13 86.98 1.34 3
4 02/16/2024 23:59:20 79.38, 159.59 92.46 02/17/2024 00:00:22 79.38, 159.64 92.44 1.03 62
5 02/17/2024 00:49:57 -79.09, -30.80 87.99 02/17/2024 00:49:37 -79.09, -30.81 87.98 0.20 20
6 02/19/2024 12:53:52 79.26, -33.04 91.39 02/19/2024 12:54:36 79.27, -33.15 91.39 2.45 44
7 02/19/2024 13:44:33 -79.10, 135.50 88.87 02/19/2024 13:43:54 -79.10, 135.65 88.88 3.16 39
8 02/22/2024 01:48:26 79.22, 133.74 90.40 02/22/2024 01:48:50 79.22, 133.69 90.39 1.11 24



Historial Predications of SNOs between FY3D and AQUA
